Portada
METAR-TAF:

METAR-TAF

Aeroports :

Emerald, Austràlia

latitud: 23-34-03S, longitud: 148-10-45E, altitud: 190 m

Observació

L'informe es va fer fa 49 minuts, a les 03:00 UTC
Vent 5 kt del Nord/Nord-Est
Temperatura 27°C
Humitat 39%
Pressió 1017 hPa
Visibilitat 10 km o més
Núvols disperses a una alçada de 5700 ft
Núvols disperses a una alçada de 11000 ft

METAR: YEML 260300Z AUTO 03005KT 9999 // SCT057 SCT110 27/12 Q1017

Hora: 13:49 (03:49 UTC)


TAF: manca

Observacions i pronòstics meteorològics de més de 4000 aeroports (METAR i TAF).

Les estacions disponibles són els punts grocs i vermells al mapa.

Posi el ratolí al punt desitjat per veure el nom de l'estació.

Feu clic per veure les observacions i els pronòstics meteorològics.

Per canviar el mapa: feu clic els botons verds amb una creu de color negre per apropar; al botó verd amb un guió per allunyar la imatge; o en les fletxes verdes per a mapes adjacents.


METAR-TAF: